"Time","Value","Approval","myLocation"
"2023-05-07 00:00",7.6236844344264,"Approved","OW282"
"2023-05-07 01:00",7.62368863889189,"Approved","OW282"
"2023-05-07 02:00",7.62369284335738,"Approved","OW282"
"2023-05-07 03:00",7.62669704782287,"Approved","OW282"
"2023-05-07 04:00",7.63170125228837,"Approved","OW282"
"2023-05-07 05:00",7.64070545675386,"Approved","OW282"
"2023-05-07 06:00",7.64470966121935,"Approved","OW282"
"2023-05-07 07:00",7.64271386568485,"Approved","OW282"
"2023-05-07 08:00",7.64071807015034,"Approved","OW282"
"2023-05-07 09:00",7.63972227461583,"Approved","OW282"
"2023-05-07 10:00",7.64072647908132,"Approved","OW282"
"2023-05-07 11:00",7.64673068354682,"Approved","OW282"
"2023-05-07 12:00",7.65073488801231,"Approved","OW282"
"2023-05-07 13:00",7.6487390924778,"Approved","OW282"
"2023-05-07 14:00",7.6397432969433,"Approved","OW282"
"2023-05-07 15:00",7.61474750140879,"Approved","OW282"
"2023-05-07 16:00",7.59675170587428,"Approved","OW282"
"2023-05-07 17:00",7.58675591033977,"Approved","OW282"
"2023-05-07 18:00",7.58776011480527,"Approved","OW282"
"2023-05-07 19:00",7.58776431927076,"Approved","OW282"
"2023-05-07 20:00",7.58676852373625,"Approved","OW282"
"2023-05-07 21:00",7.58577272820174,"Approved","OW282"
"2023-05-07 22:00",7.57977693266724,"Approved","OW282"
"2023-05-07 23:00",7.57478113713273,"Approved","OW282"
"2023-05-08 00:00",7.57178534159822,"Approved","OW282"
"2023-05-08 01:00",7.56878954606371,"Approved","OW282"
"2023-05-08 02:00",7.56679375052921,"Approved","OW282"
"2023-05-08 03:00",7.5667979549947,"Approved","OW282"
"2023-05-08 04:00",7.57180215946019,"Approved","OW282"
"2023-05-08 05:00",7.57780636392569,"Approved","OW282"
"2023-05-08 06:00",7.58181056839118,"Approved","OW282"
"2023-05-08 07:00",7.58181477285667,"Approved","OW282"
"2023-05-08 08:00",7.58081897732216,"Approved","OW282"
"2023-05-08 09:00",7.58182318178766,"Approved","OW282"
"2023-05-08 10:00",7.58082738625315,"Approved","OW282"
"2023-05-08 11:00",7.58283159071864,"Approved","OW282"
"2023-05-08 12:00",7.58383579518414,"Approved","OW282"
"2023-05-08 13:00",7.58183999964963,"Approved","OW282"
"2023-05-08 14:00",7.57284420411512,"Approved","OW282"
"2023-05-08 15:00",7.56184840858061,"Approved","OW282"
"2023-05-08 16:00",7.55385261304611,"Approved","OW282"
"2023-05-08 17:00",7.5368568175116,"Approved","OW282"
"2023-05-08 18:00",7.53186102197709,"Approved","OW282"
"2023-05-08 19:00",7.53486522644258,"Approved","OW282"
"2023-05-08 20:00",7.53286943090808,"Approved","OW282"
"2023-05-08 21:00",7.53687363537357,"Approved","OW282"
"2023-05-08 22:00",7.51987783983906,"Approved","OW282"
"2023-05-08 23:00",7.51888204430456,"Approved","OW282"
"2023-05-09 00:00",7.51588624877005,"Approved","OW282"
"2023-05-09 01:00",7.52789045323554,"Approved","OW282"
"2023-05-09 02:00",7.51389465770103,"Approved","OW282"
"2023-05-09 03:00",7.50989886216653,"Approved","OW282"
"2023-05-09 04:00",7.51690306663202,"Approved","OW282"
"2023-05-09 05:00",7.52090727109751,"Approved","OW282"
"2023-05-09 06:00",7.523911475563,"Approved","OW282"
"2023-05-09 07:00",7.5339156800285,"Approved","OW282"
"2023-05-09 08:00",7.54191988449399,"Approved","OW282"
"2023-05-09 09:00",7.54792408895948,"Approved","OW282"
"2023-05-09 10:00",7.55092829342497,"Approved","OW282"
"2023-05-09 11:00",7.55493249789047,"Approved","OW282"
"2023-05-09 12:00",7.55493670235596,"Approved","OW282"
"2023-05-09 13:00",7.54994090682145,"Approved","OW282"
"2023-05-09 14:00",7.53594511128695,"Approved","OW282"
"2023-05-09 15:00",7.50894931575244,"Approved","OW282"
"2023-05-09 16:00",7.48695352021793,"Approved","OW282"
"2023-05-09 17:00",7.47995772468342,"Approved","OW282"
"2023-05-09 18:00",7.48396192914892,"Approved","OW282"
"2023-05-09 19:00",7.48096613361441,"Approved","OW282"
"2023-05-09 20:00",7.4809703380799,"Approved","OW282"
"2023-05-09 21:00",7.48597454254539,"Approved","OW282"
"2023-05-09 22:00",7.48997874701089,"Approved","OW282"
"2023-05-09 23:00",7.46998295147638,"Approved","OW282"
"2023-05-10 00:00",7.46998715594187,"Approved","OW282"
"2023-05-10 01:00",7.46599136040737,"Approved","OW282"
"2023-05-10 02:00",7.45999556487286,"Approved","OW282"
"2023-05-10 03:00",7.45999976933835,"Approved","OW282"
"2023-05-10 04:00",7.46300397380384,"Approved","OW282"
"2023-05-10 05:00",7.46300817826934,"Approved","OW282"
"2023-05-10 06:00",7.46401238273483,"Approved","OW282"
"2023-05-10 07:00",7.46801658720032,"Approved","OW282"
"2023-05-10 08:00",7.47702079166582,"Approved","OW282"
"2023-05-10 09:00",7.48802499613131,"Approved","OW282"
"2023-05-10 10:00",7.4950292005968,"Approved","OW282"
"2023-05-10 11:00",7.49203340506229,"Approved","OW282"
"2023-05-10 12:00",7.49003760952779,"Approved","OW282"
"2023-05-10 13:00",7.48904181399328,"Approved","OW282"
"2023-05-10 14:00",7.47604601845877,"Approved","OW282"
"2023-05-10 15:00",7.45605022292426,"Approved","OW282"
"2023-05-10 16:00",7.44105442738976,"Approved","OW282"
"2023-05-10 17:00",7.43305863185525,"Approved","OW282"
"2023-05-10 18:00",7.43506283632074,"Approved","OW282"
"2023-05-10 19:00",7.44506704078624,"Approved","OW282"
"2023-05-10 20:00",7.44807124525173,"Approved","OW282"
"2023-05-10 21:00",7.45907544971722,"Approved","OW282"
"2023-05-10 22:00",7.42807965418271,"Approved","OW282"
"2023-05-10 23:00",7.42108385864821,"Approved","OW282"
"2023-05-11 00:00",7.4210880631137,"Approved","OW282"
"2023-05-11 01:00",7.41609226757919,"Approved","OW282"
"2023-05-11 02:00",7.41509647204468,"Approved","OW282"
"2023-05-11 03:00",7.41310067651018,"Approved","OW282"
"2023-05-11 04:00",7.42210488097567,"Approved","OW282"
"2023-05-11 05:00",7.43510908544116,"Approved","OW282"
"2023-05-11 06:00",7.44311328990666,"Approved","OW282"
"2023-05-11 07:00",7.45111749437215,"Approved","OW282"
"2023-05-11 08:00",7.45512169883764,"Approved","OW282"
"2023-05-11 09:00",7.45812590330313,"Approved","OW282"
"2023-05-11 10:00",7.46113010776863,"Approved","OW282"
"2023-05-11 11:00",7.46313431223412,"Approved","OW282"
"2023-05-11 12:00",7.46713851669961,"Approved","OW282"
"2023-05-11 13:00",7.4671427211651,"Approved","OW282"
"2023-05-11 14:00",7.4471469256306,"Approved","OW282"
"2023-05-11 15:00",7.40715113009609,"Approved","OW282"
"2023-05-11 16:00",7.39015533456158,"Approved","OW282"
"2023-05-11 17:00",7.38815953902707,"Approved","OW282"
"2023-05-11 18:00",7.39216374349257,"Approved","OW282"
"2023-05-11 19:00",7.39816794795806,"Approved","OW282"
"2023-05-11 20:00",7.40517215242355,"Approved","OW282"
"2023-05-11 21:00",7.40717635688905,"Approved","OW282"
"2023-05-11 22:00",7.41918056135454,"Approved","OW282"
"2023-05-11 23:00",7.42618476582003,"Approved","OW282"
"2023-05-12 00:00",7.39818897028552,"Approved","OW282"
"2023-05-12 01:00",7.39019317475102,"Approved","OW282"
"2023-05-12 02:00",7.39119737921651,"Approved","OW282"
"2023-05-12 03:00",7.372201583682,"Approved","OW282"
"2023-05-12 04:00",7.3682057881475,"Approved","OW282"
"2023-05-12 05:00",7.37920999261299,"Approved","OW282"
"2023-05-12 06:00",7.38721419707848,"Approved","OW282"
"2023-05-12 07:00",7.39321840154397,"Approved","OW282"
"2023-05-12 08:00",7.39822260600947,"Approved","OW282"
"2023-05-12 09:00",7.40122681047496,"Approved","OW282"
"2023-05-12 10:00",7.40523101494045,"Approved","OW282"
"2023-05-12 11:00",7.41023521940594,"Approved","OW282"
"2023-05-12 12:00",7.41323942387144,"Approved","OW282"
"2023-05-12 13:00",7.41424362833693,"Approved","OW282"
"2023-05-12 14:00",7.39424783280242,"Approved","OW282"
"2023-05-12 15:00",7.35525203726792,"Approved","OW282"
"2023-05-12 16:00",7.34625624173341,"Approved","OW282"
"2023-05-12 17:00",7.3462604461989,"Approved","OW282"
"2023-05-12 18:00",7.35326465066439,"Approved","OW282"
"2023-05-12 19:00",7.36526885512989,"Approved","OW282"
"2023-05-12 20:00",7.38027305959538,"Approved","OW282"
"2023-05-12 21:00",7.38727726406087,"Approved","OW282"
"2023-05-12 22:00",7.39628146852636,"Approved","OW282"
"2023-05-12 23:00",7.40328567299186,"Approved","OW282"
"2023-05-13 00:00",7.39328987745735,"Approved","OW282"
"2023-05-13 01:00",7.38829408192284,"Approved","OW282"
"2023-05-13 02:00",7.36929828638833,"Approved","OW282"
"2023-05-13 03:00",7.34330249085383,"Approved","OW282"
"2023-05-13 04:00",7.32230669531932,"Approved","OW282"
"2023-05-13 05:00",7.32731089978481,"Approved","OW282"
"2023-05-13 06:00",7.33531510425031,"Approved","OW282"
"2023-05-13 07:00",7.3413193087158,"Approved","OW282"
"2023-05-13 08:00",7.34532351318129,"Approved","OW282"
"2023-05-13 09:00",7.34932771764678,"Approved","OW282"
"2023-05-13 10:00",7.35033192211228,"Approved","OW282"
"2023-05-13 11:00",7.34933612657777,"Approved","OW282"
"2023-05-13 12:00",7.35034033104326,"Approved","OW282"
"2023-05-13 13:00",7.35034453550876,"Approved","OW282"
"2023-05-13 14:00",7.33334873997425,"Approved","OW282"
"2023-05-13 15:00",7.30335294443974,"Approved","OW282"
"2023-05-13 16:00",7.29935714890523,"Approved","OW282"
"2023-05-13 17:00",7.30236135337073,"Approved","OW282"
"2023-05-13 18:00",7.30936555783622,"Approved","OW282"
"2023-05-13 19:00",7.32136976230171,"Approved","OW282"
"2023-05-13 20:00",7.3383739667672,"Approved","OW282"
"2023-05-13 21:00",7.3553781712327,"Approved","OW282"
"2023-05-13 22:00",7.38138237569819,"Approved","OW282"
"2023-05-13 23:00",7.39038658016368,"Approved","OW282"
"2023-05-14 00:00",7.39639078462917,"Approved","OW282"
"2023-05-14 01:00",7.37939498909467,"Approved","OW282"
"2023-05-14 02:00",7.34539919356016,"Approved","OW282"
"2023-05-14 03:00",7.30940339802565,"Approved","OW282"
"2023-05-14 04:00",7.27640760249115,"Approved","OW282"
"2023-05-14 05:00",7.27841180695664,"Approved","OW282"
"2023-05-14 06:00",7.28141601142213,"Approved","OW282"
"2023-05-14 07:00",7.28542021588762,"Approved","OW282"
"2023-05-14 08:00",7.28942442035312,"Approved","OW282"
"2023-05-14 09:00",7.29142862481861,"Approved","OW282"
"2023-05-14 10:00",7.2934328292841,"Approved","OW282"
"2023-05-14 11:00",7.2964370337496,"Approved","OW282"
"2023-05-14 12:00",7.29944123821509,"Approved","OW282"
"2023-05-14 13:00",7.30144544268058,"Approved","OW282"
"2023-05-14 14:00",7.28244964714607,"Approved","OW282"
"2023-05-14 15:00",7.25845385161157,"Approved","OW282"
"2023-05-14 16:00",7.25645805607706,"Approved","OW282"
"2023-05-14 17:00",7.26446226054255,"Approved","OW282"
"2023-05-14 18:00",7.28146646500804,"Approved","OW282"
"2023-05-14 19:00",7.29747066947354,"Approved","OW282"
"2023-05-14 20:00",7.31147487393903,"Approved","OW282"
"2023-05-14 21:00",7.32547907840452,"Approved","OW282"
"2023-05-14 22:00",7.34648328287001,"Approved","OW282"
"2023-05-14 23:00",7.36348748733551,"Approved","OW282"
"2023-05-15 00:00",7.372491691801,"Approved","OW282"
"2023-05-15 01:00",7.36049589626649,"Approved","OW282"
"2023-05-15 02:00",7.32950010073199,"Approved","OW282"
"2023-05-15 03:00",7.27550430519748,"Approved","OW282"
"2023-05-15 04:00",7.23350850966297,"Approved","OW282"
"2023-05-15 05:00",7.23351271412846,"Approved","OW282"
"2023-05-15 06:00",7.23751691859396,"Approved","OW282"
"2023-05-15 07:00",7.23952112305945,"Approved","OW282"
"2023-05-15 08:00",7.24252532752494,"Approved","OW282"
"2023-05-15 09:00",7.24452953199043,"Approved","OW282"
"2023-05-15 10:00",7.24753373645593,"Approved","OW282"
"2023-05-15 11:00",7.24953794092142,"Approved","OW282"
"2023-05-15 12:00",7.25254214538691,"Approved","OW282"
"2023-05-15 13:00",7.24954634985241,"Approved","OW282"
"2023-05-15 14:00",7.2325505543179,"Approved","OW282"
"2023-05-15 15:00",7.21455475878339,"Approved","OW282"
"2023-05-15 16:00",7.21855896324888,"Approved","OW282"
"2023-05-15 17:00",7.23056316771438,"Approved","OW282"
"2023-05-15 18:00",7.25356737217987,"Approved","OW282"
"2023-05-15 19:00",7.26257157664536,"Approved","OW282"
"2023-05-15 20:00",7.27157578111085,"Approved","OW282"
"2023-05-15 21:00",7.27957998557635,"Approved","OW282"
"2023-05-15 22:00",7.28958419004184,"Approved","OW282"
"2023-05-15 23:00",7.28358839450733,"Approved","OW282"
"2023-05-16 00:00",7.26459259897283,"Approved","OW282"
"2023-05-16 01:00",7.23259680343832,"Approved","OW282"
"2023-05-16 02:00",7.21860100790381,"Approved","OW282"
"2023-05-16 03:00",7.2076052123693,"Approved","OW282"
"2023-05-16 04:00",7.1936094168348,"Approved","OW282"
"2023-05-16 05:00",7.19061362130029,"Approved","OW282"
"2023-05-16 06:00",7.19161782576578,"Approved","OW282"
"2023-05-16 07:00",7.19462203023127,"Approved","OW282"
"2023-05-16 08:00",7.19462623469677,"Approved","OW282"
"2023-05-16 09:00",7.19563043916226,"Approved","OW282"
"2023-05-16 10:00",7.19463464362775,"Approved","OW282"
"2023-05-16 11:00",7.19663884809325,"Approved","OW282"
"2023-05-16 12:00",7.20064305255874,"Approved","OW282"
"2023-05-16 13:00",7.20264725702423,"Approved","OW282"
"2023-05-16 14:00",7.18865146148972,"Approved","OW282"
"2023-05-16 15:00",7.17565566595522,"Approved","OW282"
"2023-05-16 16:00",7.17965987042071,"Approved","OW282"
"2023-05-16 17:00",7.1856640748862,"Approved","OW282"
"2023-05-16 18:00",7.1936682793517,"Approved","OW282"
"2023-05-16 19:00",7.20067248381719,"Approved","OW282"
"2023-05-16 20:00",7.21167668828268,"Approved","OW282"
"2023-05-16 21:00",7.22168089274817,"Approved","OW282"
"2023-05-16 22:00",7.19168509721367,"Approved","OW282"
"2023-05-16 23:00",7.18168930167916,"Approved","OW282"
"2023-05-17 00:00",7.17369350614465,"Approved","OW282"
"2023-05-17 01:00",7.16669771061014,"Approved","OW282"
"2023-05-17 02:00",7.16370191507564,"Approved","OW282"
"2023-05-17 03:00",7.15970611954113,"Approved","OW282"
"2023-05-17 04:00",7.15471032400662,"Approved","OW282"
"2023-05-17 05:00",7.15471452847211,"Approved","OW282"
"2023-05-17 06:00",7.15671873293761,"Approved","OW282"
"2023-05-17 07:00",7.1607229374031,"Approved","OW282"
"2023-05-17 08:00",7.16172714186859,"Approved","OW282"
"2023-05-17 09:00",7.16073134633409,"Approved","OW282"
"2023-05-17 10:00",7.16173555079958,"Approved","OW282"
"2023-05-17 11:00",7.16373975526507,"Approved","OW282"
"2023-05-17 12:00",7.16574395973056,"Approved","OW282"
"2023-05-17 13:00",7.16674816419606,"Approved","OW282"
"2023-05-17 14:00",7.15575236866155,"Approved","OW282"
"2023-05-17 15:00",7.14075657312704,"Approved","OW282"
"2023-05-17 16:00",7.13876077759253,"Approved","OW282"
"2023-05-17 17:00",7.14276498205803,"Approved","OW282"
"2023-05-17 18:00",7.15576918652352,"Approved","OW282"
"2023-05-17 19:00",7.16277339098901,"Approved","OW282"
"2023-05-17 20:00",7.17777759545451,"Approved","OW282"
"2023-05-17 21:00",7.18878179992,"Approved","OW282"
"2023-05-17 22:00",7.19678600438549,"Approved","OW282"
"2023-05-17 23:00",7.20479020885098,"Approved","OW282"
"2023-05-18 00:00",7.20279441331648,"Approved","OW282"
"2023-05-18 01:00",7.18079861778197,"Approved","OW282"
"2023-05-18 02:00",7.15680282224746,"Approved","OW282"
"2023-05-18 03:00",7.13480702671295,"Approved","OW282"
"2023-05-18 04:00",7.11681123117845,"Approved","OW282"
"2023-05-18 05:00",7.11681543564394,"Approved","OW282"
"2023-05-18 06:00",7.12081964010943,"Approved","OW282"
"2023-05-18 07:00",7.12482384457493,"Approved","OW282"
"2023-05-18 08:00",7.12682804904042,"Approved","OW282"
"2023-05-18 09:00",7.12883225350591,"Approved","OW282"
"2023-05-18 10:00",7.1308364579714,"Approved","OW282"
"2023-05-18 11:00",7.1318406624369,"Approved","OW282"
"2023-05-18 12:00",7.13284486690239,"Approved","OW282"
"2023-05-18 13:00",7.13284907136788,"Approved","OW282"
"2023-05-18 14:00",7.12385327583337,"Approved","OW282"
"2023-05-18 15:00",7.10485748029887,"Approved","OW282"
"2023-05-18 16:00",7.10486168476436,"Approved","OW282"
"2023-05-18 17:00",7.11286588922985,"Approved","OW282"
"2023-05-18 18:00",7.12487009369535,"Approved","OW282"
"2023-05-18 19:00",7.13687429816084,"Approved","OW282"
"2023-05-18 20:00",7.14187850262633,"Approved","OW282"
"2023-05-18 21:00",7.14588270709182,"Approved","OW282"
"2023-05-18 22:00",7.13688691155732,"Approved","OW282"
"2023-05-18 23:00",7.12289111602281,"Approved","OW282"
"2023-05-19 00:00",7.1138953204883,"Approved","OW282"
"2023-05-19 01:00",7.11789952495379,"Approved","OW282"
"2023-05-19 02:00",7.10390372941929,"Approved","OW282"
"2023-05-19 03:00",7.09190793388478,"Approved","OW282"
"2023-05-19 04:00",7.08591213835027,"Approved","OW282"
"2023-05-19 05:00",7.08391634281577,"Approved","OW282"
"2023-05-19 06:00",7.08192054728126,"Approved","OW282"
"2023-05-19 07:00",7.08192475174675,"Approved","OW282"
"2023-05-19 08:00",7.08092895621224,"Approved","OW282"
"2023-05-19 09:00",7.08193316067774,"Approved","OW282"
"2023-05-19 10:00",7.08393736514323,"Approved","OW282"
"2023-05-19 11:00",7.08694156960872,"Approved","OW282"
"2023-05-19 12:00",7.08994577407421,"Approved","OW282"
"2023-05-19 13:00",7.09294997853971,"Approved","OW282"
"2023-05-19 14:00",7.0829541830052,"Approved","OW282"
"2023-05-19 15:00",7.07195838747069,"Approved","OW282"
"2023-05-19 16:00",7.07396259193619,"Approved","OW282"
"2023-05-19 17:00",7.08396679640168,"Approved","OW282"
"2023-05-19 18:00",7.10297100086717,"Approved","OW282"
"2023-05-19 19:00",7.11897520533266,"Approved","OW282"
"2023-05-19 20:00",7.13897940979816,"Approved","OW282"
"2023-05-19 21:00",7.15198361426365,"Approved","OW282"
"2023-05-19 22:00",7.15898781872914,"Approved","OW282"
"2023-05-19 23:00",7.16299202319463,"Approved","OW282"
"2023-05-20 00:00",7.16899622766013,"Approved","OW282"
"2023-05-20 01:00",7.13600043212562,"Approved","OW282"
"2023-05-20 02:00",7.12900463659111,"Approved","OW282"
"2023-05-20 03:00",7.09800884105661,"Approved","OW282"
"2023-05-20 04:00",7.0560130455221,"Approved","OW282"
"2023-05-20 05:00",7.05001724998759,"Approved","OW282"
"2023-05-20 06:00",7.05202145445308,"Approved","OW282"
"2023-05-20 07:00",7.05402565891858,"Approved","OW282"
"2023-05-20 08:00",7.05502986338407,"Approved","OW282"
"2023-05-20 09:00",7.05503406784956,"Approved","OW282"
"2023-05-20 10:00",7.05803827231505,"Approved","OW282"
"2023-05-20 11:00",7.05504247678055,"Approved","OW282"
"2023-05-20 12:00",7.05304668124604,"Approved","OW282"
"2023-05-20 13:00",7.05405088571153,"Approved","OW282"
"2023-05-20 14:00",7.04405509017703,"Approved","OW282"
"2023-05-20 15:00",7.03905929464252,"Approved","OW282"
"2023-05-20 16:00",7.04406349910801,"Approved","OW282"
"2023-05-20 17:00",7.0510677035735,"Approved","OW282"
"2023-05-20 18:00",7.063071908039,"Approved","OW282"
"2023-05-20 19:00",7.06907611250449,"Approved","OW282"
"2023-05-20 20:00",7.09808031696998,"Approved","OW282"
"2023-05-20 21:00",7.13508452143548,"Approved","OW282"
"2023-05-20 22:00",7.14308872590097,"Approved","OW282"
"2023-05-20 23:00",7.03609293036646,"Approved","OW282"
"2023-05-21 00:00",7.02509713483195,"Approved","OW282"
"2023-05-21 01:00",7.02410133929745,"Approved","OW282"
"2023-05-21 02:00",7.02410554376294,"Approved","OW282"
"2023-05-21 03:00",7.02310974822843,"Approved","OW282"
"2023-05-21 04:00",7.02211395269392,"Approved","OW282"
"2023-05-21 05:00",7.02111815715942,"Approved","OW282"
"2023-05-21 06:00",7.02312236162491,"Approved","OW282"
"2023-05-21 07:00",7.0241265660904,"Approved","OW282"
"2023-05-21 08:00",7.02413077055589,"Approved","OW282"
"2023-05-21 09:00",7.02513497502139,"Approved","OW282"
"2023-05-21 10:00",7.02713917948688,"Approved","OW282"
"2023-05-21 11:00",7.02114338395237,"Approved","OW282"
"2023-05-21 12:00",7.01814758841787,"Approved","OW282"
"2023-05-21 13:00",7.01615179288336,"Approved","OW282"
"2023-05-21 14:00",7.01115599734885,"Approved","OW282"
"2023-05-21 15:00",7.00316020181434,"Approved","OW282"
"2023-05-21 16:00",7.00016440627984,"Approved","OW282"
"2023-05-21 17:00",6.99916861074533,"Approved","OW282"
"2023-05-21 18:00",7.00917281521082,"Approved","OW282"
"2023-05-21 19:00",7.02717701967631,"Approved","OW282"
"2023-05-21 20:00",7.02018122414181,"Approved","OW282"
"2023-05-21 21:00",7.0061854286073,"Approved","OW282"
"2023-05-21 22:00",6.98918963307279,"Approved","OW282"
"2023-05-21 23:00",6.99119383753829,"Approved","OW282"
"2023-05-22 00:00",6.98519804200378,"Approved","OW282"
"2023-05-22 01:00",6.98320224646927,"Approved","OW282"
"2023-05-22 02:00",6.98220645093476,"Approved","OW282"
"2023-05-22 03:00",6.98021065540026,"Approved","OW282"
"2023-05-22 04:00",6.97921485986575,"Approved","OW282"
"2023-05-22 05:00",6.98021906433124,"Approved","OW282"
"2023-05-22 06:00",6.98022326879673,"Approved","OW282"
"2023-05-22 07:00",6.98322747326223,"Approved","OW282"
"2023-05-22 08:00",6.98523167772772,"Approved","OW282"
"2023-05-22 09:00",6.98623588219321,"Approved","OW282"
"2023-05-22 10:00",6.98324008665871,"Approved","OW282"
"2023-05-22 11:00",6.9792442911242,"Approved","OW282"
"2023-05-22 12:00",6.97724849558969,"Approved","OW282"
"2023-05-22 13:00",6.97525270005518,"Approved","OW282"
"2023-05-22 14:00",6.97025690452068,"Approved","OW282"
"2023-05-22 15:00",6.96726110898617,"Approved","OW282"
"2023-05-22 16:00",6.95726531345166,"Approved","OW282"
"2023-05-22 17:00",6.95126951791715,"Approved","OW282"
"2023-05-22 18:00",6.95027372238265,"Approved","OW282"
"2023-05-22 19:00",6.94627792684814,"Approved","OW282"
"2023-05-22 20:00",6.94428213131363,"Approved","OW282"
"2023-05-22 21:00",6.94528633577912,"Approved","OW282"
"2023-05-22 22:00",6.94029054024462,"Approved","OW282"
"2023-05-22 23:00",6.93929474471011,"Approved","OW282"
"2023-05-23 00:00",6.9412989491756,"Approved","OW282"
"2023-05-23 01:00",6.9353031536411,"Approved","OW282"
"2023-05-23 02:00",6.93130735810659,"Approved","OW282"
"2023-05-23 03:00",6.93231156257208,"Approved","OW282"
"2023-05-23 04:00",6.93531576703757,"Approved","OW282"
"2023-05-23 05:00",6.94231997150307,"Approved","OW282"
"2023-05-23 06:00",6.94532417596856,"Approved","OW282"
"2023-05-23 07:00",6.94532838043405,"Approved","OW282"
"2023-05-23 08:00",6.94433258489955,"Approved","OW282"
"2023-05-23 09:00",6.94333678936504,"Approved","OW282"
"2023-05-23 10:00",6.94934099383053,"Approved","OW282"
"2023-05-23 11:00",6.95334519829602,"Approved","OW282"
"2023-05-23 12:00",6.95534940276152,"Approved","OW282"
"2023-05-23 13:00",6.95435360722701,"Approved","OW282"
"2023-05-23 14:00",6.9453578116925,"Approved","OW282"
"2023-05-23 15:00",6.91536201615799,"Approved","OW282"
"2023-05-23 16:00",6.90136622062349,"Approved","OW282"
"2023-05-23 17:00",6.90037042508898,"Approved","OW282"
"2023-05-23 18:00",6.90337462955447,"Approved","OW282"
"2023-05-23 19:00",6.90637883401997,"Approved","OW282"
"2023-05-23 20:00",6.90438303848546,"Approved","OW282"
"2023-05-23 21:00",6.91438724295095,"Approved","OW282"
"2023-05-23 22:00",6.89939144741644,"Approved","OW282"
"2023-05-23 23:00",6.88939565188194,"Approved","OW282"
"2023-05-24 00:00",6.88539985634743,"Approved","OW282"
"2023-05-24 01:00",6.88240406081292,"Approved","OW282"
"2023-05-24 02:00",6.88040826527841,"Approved","OW282"
"2023-05-24 03:00",6.88041246974391,"Approved","OW282"
"2023-05-24 04:00",6.8804166742094,"Approved","OW282"
"2023-05-24 05:00",6.88342087867489,"Approved","OW282"
"2023-05-24 06:00",6.88342508314039,"Approved","OW282"
"2023-05-24 07:00",6.88142928760588,"Approved","OW282"
"2023-05-24 08:00",6.88443349207137,"Approved","OW282"
"2023-05-24 09:00",6.89443769653686,"Approved","OW282"
"2023-05-24 10:00",6.89144190100236,"Approved","OW282"
"2023-05-24 11:00",6.89044610546785,"Approved","OW282"
"2023-05-24 12:00",6.89745030993334,"Approved","OW282"
"2023-05-24 13:00",6.89445451439883,"Approved","OW282"
"2023-05-24 14:00",6.87145871886433,"Approved","OW282"
"2023-05-24 15:00",6.85546292332982,"Approved","OW282"
"2023-05-24 16:00",6.85246712779531,"Approved","OW282"
"2023-05-24 17:00",6.84847133226081,"Approved","OW282"
"2023-05-24 18:00",6.8514755367263,"Approved","OW282"
"2023-05-24 19:00",6.85347974119179,"Approved","OW282"